YAHSAT 1A

Last updated on Wed Sep 09 2026 00:02:59 GMT+0000 (Coordinated Universal Time)

1 37393U 11016B 26251.24160921 .00000080 00000+0 00000+0 0 9991 2 37393 0.0111 137.3701 0002151 24.4251 324.9993 1.00274808 43241
UTC large
Height (km)
Speed (km/s)
/
Latitude / Longitude
Inclination (degrees)
Orbital Period (minutes)
Azimuth
Elevation
Range (km)
Doppler Factor

Next 0 passes for location: London (51.5072 / 0.1276)

No passes found over London.
YAHSAT 1A